Hourly Data Report for December 17, 2016

TORONTO CITY
ONTARIO

43°40'00.000" N
79°24'00.000" W
112.50 m
6158355
71508
XTO

Download Data

Hourly Data (December 2016)
Hourly Data Report for December 17, 2016
TIME
LST
Temp Definition
°C
Dew Point Definition
°C
Rel Hum Definition
%
Precip. Amount Definition
mm

Wind Dir Definition
10's deg

Wind Spd Definition
km/h
Visibility Definition
km
Stn Press Definition
kPa
Hmdx Definition


Wind Chill Definition


Weather Definition


00:00 -5.0 -6.6 88 0.7 LegendMM LegendMM   100.38     LegendNANA
01:00 -5.2 -6.7 90 0.6 LegendMM LegendMM   100.20     LegendNANA
02:00 -5.6 -7.0 90 0.6 LegendMM LegendMM   100.02     LegendNANA
03:00 -5.1 -6.2 92 0.5 LegendMM LegendMM   99.88     LegendNANA
04:00 -4.2 -5.4 91 0.8 LegendMM LegendMM   99.67     LegendNANA
05:00 -3.9 -4.8 93 1.1 LegendMM LegendMM   99.52     LegendNANA
06:00 -3.8 -4.6 94 2.5 LegendMM LegendMM   99.42     LegendNANA
07:00 -3.4 -4.4 93 0.5 LegendMM LegendMM   99.35     LegendNANA
08:00 -2.7 -4.0 91 0.2 LegendMM LegendMM   99.31     LegendNANA
09:00 -2.6 -4.0 90 0.3 LegendMM LegendMM   99.34     LegendNANA
10:00 -2.0 -3.6 89 0.0 LegendMM LegendMM   99.37     LegendNANA
11:00 -1.3 -3.2 87 0.0 LegendMM LegendMM   99.24     LegendNANA
12:00 -1.0 -2.6 89 0.0 LegendMM LegendMM   99.20     LegendNANA
13:00 -0.5 -2.1 89 0.0 LegendMM LegendMM   99.13     LegendNANA
14:00 0.2 -1.5 88 0.0 LegendMM LegendMM   99.11     LegendNANA
15:00 0.4 -1.5 87 0.0 LegendMM LegendMM   99.11     LegendNANA
16:00 0.3 -0.8 93 0.2 LegendMM LegendMM   99.14     LegendNANA
17:00 0.3 -0.5 95 0.2 LegendMM LegendMM   99.10     LegendNANA
18:00 0.4 -0.7 93 0.3 LegendMM LegendMM   99.08     LegendNANA
19:00 0.4 -0.7 92 0.0 LegendMM LegendMM   99.13     LegendNANA
20:00 0.3 -0.5 95 0.2 LegendMM LegendMM   99.11     LegendNANA
21:00 0.5 -0.5 93 0.0 LegendMM LegendMM   99.06     LegendNANA
22:00 0.3 -0.9 91 0.0 LegendMM LegendMM   99.05     LegendNANA
23:00 0.2 -1.3 90 0.3 LegendMM LegendMM   99.00     LegendNANA

Notes on Data Quality.

Legend

  • E = Estimated
  • M = Missing
  • NA = Not Available*
  • [empty] = Indicates an unobserved value
Date modified: